Location: Asheville, NC
(35.6000°N, 82.5500°W)
Time: 17:04:18
(UTC-04:00)

Vanguard 1 Rocket - Pass Details

Date: 17 February 2018
Orbit: 652 x 4225 km, 34.3° (Epoch: 20 May)

Event Time Altitude Azimuth Distance (km) Brightness Sun altitude
Rises 22:00:55 0° 216° (SW) 6,160 11.8 -46.1°
Reaches altitude 10° 22:04:32 10° 211° (SSW) 5,548 11.4 -46.8°
Enters shadow 22:12:56 35° 190° (S) 4,587 10.7 -48.3°
Exits shadow 22:50:59 - 72° (ENE) 7,958 12.0 -55.0°
Sets 22:52:28 0° 72° (ENE) 8,180 12.1 -55.2°
